Location: Byszew
(52.1813°N, 19.2693°E)
Time: 16:14:49
(UTC+00:00)

SPROUT - Pass Details

Date: 07 July 2022
Orbit: 588 x 598 km, 97.9° (Epoch: 09 August)

Event Time Altitude Azimuth Distance (km) Brightness Sun altitude
Exits shadow 22:14:23 10° 116° (ESE) 1,950 ? -15.0°
Reaches altitude 10° 22:14:29 10° 116° (ESE) 1,919 ? -15.0°
Maximum altitude 22:17:50 24° 62° (ENE) 1,238 ? -15.0°
Drops below altitude 10° 22:21:13 10° 8° (N) 1,934 ? -15.1°
Sets 22:23:41 0° 355° (N) 2,842 ? -15.1°
